Weather History for KLPR - March, 2013

Change the Weather History Date:

Thursday, March 21, 2013

  Actual Average (KCLE) Record (KCLE)
Temperature  
Mean Temperature 24 °F 40 °F  
Max Temperature 30 °F 48 °F 83 °F (2012)
Min Temperature 17 °F 32 °F -4 °F (1885)
Degree Days  
Heating Degree Days 42 25  
Month to date heating degree days 594  
Since 1 July heating degree days 4811  
Cooling Degree Days 0 0  
Month to date cooling degree days 0  
Year to date cooling degree days 0  
Moisture  
Dew Point 17 °F    
Average Humidity 70    
Maximum Humidity 81    
Minimum Humidity 63    
Precipitation  
Precipitation 0.00 in 0.10 in 0.96 in (1980)
Month to date precipitation 1.87  
Year to date precipitation 6.93  
Snow  
Snow 0.00 in 0.40 in - ()
Month to date snowfall 9.4  
Since 1 July snowfall 61.6  
Snow Depth -    
Sea Level Pressure  
Sea Level Pressure 29.91 in    
Wind  
Wind Speed 11 mph (WNW)    
Max Wind Speed 18 mph    
Max Gust Speed 22 mph    
Visibility 7 miles    
Events Snow    
T = Trace of Precipitation, MM = Missing Value Source: NWS Daily Summary

Daily Weather History Graph

Daily Weather History Graph

Search for Another Location

Airport or City:

Trip Planner

Search our weather history database for the weather conditions in past years. The results will help you decide how hot, cold, wet, or windy it might be!

Date:

Astronomy

Mar. 21, 2013 Rise Set
Actual Time 7:29 AM EDT 7:42 PM EDT
Civil Twilight 7:02 AM EDT 8:09 PM EDT
Nautical Twilight 6:30 AM EDT 8:42 PM EDT
Astronomical Twilight 5:57 AM EDT 9:15 PM EDT
Moon 2:07 PM EDT (3/21) 3:54 AM EDT (3/21)
Length of Visible Light 13h 07m
Length of Day
12h 12m
Waxing Gibbous, 68% of the Moon is Illuminated
Mar 21
Waxing Gibbous
Mar 27
Full
Apr 3
Last Quarter
Apr 10
New
Apr 18
First Quarter

Hourly Weather History & Observations

Time (EDT) Temp. Windchill Dew Point Humidity Pressure Visibility Wind Dir Wind Speed Gust Speed Precip Events Conditions
12:53 AM 21.0 °F 9.9 °F 10.0 °F 63% 29.95 in 10.0 mi West 10.4 mph - N/A   Mostly Cloudy
1:08 AM 21.2 °F 11.7 °F 10.4 °F 63% 29.92 in 10.0 mi WNW 8.1 mph - N/A   Mostly Cloudy
1:29 AM 21.2 °F 9.5 °F 10.4 °F 63% 29.92 in 10.0 mi WNW 11.5 mph - N/A   Overcast
1:37 AM 21.2 °F 11.7 °F 10.4 °F 63% 29.91 in 9.0 mi West 8.1 mph - 0.00 in Snow Light Snow
1:46 AM 21.2 °F 10.9 °F 10.4 °F 63% 29.91 in 9.0 mi West 9.2 mph - 0.00 in   Overcast
2:53 AM 19.9 °F 9.3 °F 10.9 °F 68% 29.93 in 10.0 mi West 9.2 mph - 0.00 in   Overcast
3:53 AM 19.0 °F 7.5 °F 10.0 °F 68% 29.92 in 10.0 mi West 10.4 mph - N/A   Mostly Cloudy
4:53 AM 19.0 °F 6.8 °F 10.9 °F 71% 29.91 in 10.0 mi West 11.5 mph - N/A   Overcast
5:53 AM 18.0 °F 6.9 °F 10.9 °F 74% 29.91 in 10.0 mi West 9.2 mph - N/A   Mostly Cloudy
6:53 AM 18.0 °F 5.4 °F 12.0 °F 78% 29.91 in 4.0 mi West 11.5 mph - 0.00 in Snow Light Snow
7:53 AM 17.1 °F 5.8 °F 12.0 °F 81% 29.91 in 10.0 mi West 9.2 mph - 0.00 in   Mostly Cloudy
8:53 AM 19.0 °F 6.1 °F 12.9 °F 77% 29.91 in 10.0 mi West 12.7 mph - N/A   Clear
9:53 AM 21.9 °F 11.0 °F 12.9 °F 68% 29.92 in 9.0 mi West 10.4 mph - N/A   Mostly Cloudy
10:53 AM 23.0 °F 13.1 °F 15.1 °F 72% 29.93 in 6.0 mi WNW 9.2 mph 18.4 mph 0.00 in Snow Light Snow
11:53 AM 24.1 °F 13.1 °F 16.0 °F 71% 29.92 in 10.0 mi West 11.5 mph - 0.00 in   Overcast
12:53 PM 26.1 °F 15.6 °F 18.0 °F 71% 29.92 in 4.0 mi West 11.5 mph - 0.00 in Snow Light Snow
1:21 PM 26.6 °F 15.2 °F 19.4 °F 74% 29.88 in 2.0 mi West 13.8 mph - 0.00 in Snow Light Snow
1:28 PM 26.6 °F 15.2 °F 19.4 °F 74% 29.88 in 1.5 mi West 13.8 mph - 0.00 in Snow Light Snow
1:53 PM 27.0 °F 16.1 °F 19.9 °F 75% 29.90 in 2.5 mi West 12.7 mph - 0.00 in Snow Light Snow
2:01 PM 28.4 °F 15.8 °F 19.4 °F 69% 29.87 in 3.0 mi WNW 18.4 mph 21.9 mph 0.00 in Snow Light Snow
2:53 PM 30.0 °F 17.9 °F 19.9 °F 66% 29.90 in 10.0 mi WNW 18.4 mph - 0.00 in   Overcast
3:53 PM 30.0 °F 19.5 °F 19.9 °F 66% 29.91 in 10.0 mi West 13.8 mph - N/A   Overcast
4:19 PM 30.2 °F 21.3 °F 21.2 °F 69% 29.87 in 9.0 mi WNW 10.4 mph - 0.00 in Snow Light Snow
4:53 PM 30.0 °F 19.1 °F 21.0 °F 69% 29.91 in 8.0 mi WNW 15.0 mph - 0.00 in   Overcast
5:11 PM 30.2 °F 20.2 °F 21.2 °F 69% 29.88 in 1.8 mi NW 12.7 mph - 0.00 in Snow Light Snow
5:53 PM 28.9 °F 21.1 °F 23.0 °F 78% 29.92 in 2.5 mi WNW 8.1 mph - 0.00 in Snow Light Snow
6:11 PM 30.2 °F 19.8 °F 21.2 °F 69% 29.89 in 7.0 mi WNW 13.8 mph - 0.00 in Snow Light Snow
6:53 PM 30.0 °F 19.1 °F 19.9 °F 66% 29.92 in 6.0 mi West 15.0 mph 20.7 mph 0.00 in Snow Light Snow
7:53 PM 30.0 °F 21.1 °F 19.9 °F 66% 29.93 in 8.0 mi West 10.4 mph 18.4 mph 0.00 in Snow Light Snow
8:53 PM 30.0 °F 21.1 °F 21.9 °F 72% 29.93 in 5.0 mi West 10.4 mph 18.4 mph 0.00 in Snow Light Snow
9:53 PM 28.9 °F 19.2 °F 21.9 °F 75% 29.94 in 4.0 mi West 11.5 mph - 0.00 in Snow Light Snow
10:53 PM 28.9 °F 19.2 °F 21.9 °F 75% 29.94 in 8.0 mi West 11.5 mph - 0.00 in Snow Light Snow
11:53 PM 28.9 °F 19.2 °F 21.0 °F 72% 29.95 in 9.0 mi WNW 11.5 mph 21.9 mph 0.00 in   Overcast